ONEWEB-0621 (55162 NORAD) Tracking and Keplerian Element Data

This shows tracking and keplerian element data for the satellite.

Feedback or suggestion? Click here.




ElementValue
Catalog55162
NameONEWEB-0621
Epoch Orbit130
Epoch Day85.00001157
Epoch Year2023
RAAN259.6115
Inclination87.6948
Eccentricity0.0009667
Argument of Perigee333.9632
Mean Anonmoly186.3345
Mean Motion13.41776897
Decay Rate-7.642E-05
L11 55162U 23004Y 23085.00001157 -.00007642 00000+0 -13709-1 0 9991
L22 55162 87.6948 259.6115 0009667 333.9632 186.3345 13.41776897 1306



Live tracking and technical data element details for ONEWEB-0621 (NORAD 55162). ONEWEB-0621 can be tracked NOW for your location showing map with azimuth and elevation plus other details from your city location.







IsCatalogInMostPopularTable: catalog: 55162, numindb: 12
Update: records affected: 1



GetName: 55162 ONEWEB-0621

Hit Count: updated at: Mon, 27 Mar 2023 08:03:49 GMT